Location: Gensac
(43.2177°N, 1.1313°E)
Time: 00:30:33
(UTC+00:00)

SL-4 R/B - Pass Details

Date: 08 December 2025
Orbit: 385 x 521 km, 51.6° (Epoch: 17 January)

Event Time Altitude Azimuth Distance (km) Brightness Sun altitude
Exits shadow 05:07:19 16° 27° (NNE) 1,145 3.8 -22.4°
Drops below altitude 10° 05:08:34 10° 48° (NE) 1,437 4.6 -22.2°
Sets 05:11:03 0° 68° (ENE) 2,279 6.1 -21.8°
